User: anonymous
Location: Caltech
(34.1382°N, 118.1253°W)
Time: 06:03:30
(UTC-07:00)
Language:

SEDSat Delta rocket - Orbit

View from above orbital plane
View from above orbital plane
View from above satellite
View from above satellite

Ground track
Ground track

The orbit data is extracted from the following two-line orbital elements,

1 25510U 98061C   14292.15622878  .00000710  00000-0  11681-3 0  9868
2 25510 031.4349 311.9295 0332635 106.2888 309.6016 14.35924863837417
Epoch (UTC): 19 October 2014 03:44:58
Eccentricity: 0.0332635
inclination: 31.4349°
perigee height: 534 km
apogee height: 1010 km
right ascension of ascending node: 311.9295°
argument of perigee: 106.2888°
revolutions per day: 14.35924863
mean anomaly at epoch: 309.6016°
orbit number at epoch: 83741

The dashed part of the orbit path shows where the satellite is in the earth's shadow,  

DLR